星链-4044 (STARLINK-4044 )

导读

STARLINK-4044是美国SpaceX公司星链星座中的一颗低轨互联网卫星,于2022年5月18日发射入轨,为星链全球组网补充卫星资源。该卫星运行在近地轨道,属于星链通信星座的组成部分,可提供全球范围高速低延迟的互联网接入服务,覆盖传统基础设施难以到达的偏远区域。星链项目目前已是全球规模最大的卫星星座,截至2026年已有超九千颗卫星在轨,持续为全球用户和特种通信需求提供卫星互联网支持。

Basic Information
目录编号:
52662
目录名称:
STARLINK-4044
国际标识:
2022-053G
轨道中心:
EARTH
卫星名称:
星链-4044
卫星全名:
星链-4044 (STARLINK-4044 )
卫星状态:
在轨 (已飞行1571 天)
发射日期:
2022-05-18 UTC
国别 :
美国 (US)
星等 :
--
Orbit Information
数据来源 国际轨道数据
星历时间: 2026-09-05T16:00:02+0800
10小时前
查看轨道信息
半长轴: 6868.68km
偏心率: 0.0000416
轨道倾角: 53.160°
近地点辐角 113.940°
升交点赤经 66.483°
平近点角 277.402°
近地点: 490.257km
远地点: 490.829km
周期: 94.421分钟
每日圈数: 15.25081
Detailed Information
固有亮度:
5
最大亮度:
2.5
卫星平台:
Starlink v1.5
覆盖范围:
全球
运营商:
太空探索技术公司
运营商所在国:
美国
制造商(研发单位):
太空探索技术公司
制造商所在国:
美国
使用方式:
暂无
Satellite Introduction
星链(Starlink)计划是由太空探索技术公司(SpaceX)提出的一个巨型低轨卫星互联网星座项目,计划在2019年至2024年间在太空搭建由约1.2万颗卫星组成的“星链”网络,其中1584颗将部署在地球上空550千米处的近地轨道,并从2020年开始工作。该卫星仍在工作。
2D Orbit Map
3D Orbit Map
Orbit Altitude Analysis Chart
Orbit Inclination Analysis Chart
Orbit Comprehensive Analysis Chart
View Comprehensive Chart
Conjunction Data List
Event ID Objects TCA Miss Dist (km) Collision Risk Probability Collision Risk Index (CRI) Action
CDM_260906-213704-284405-266221
NANOACE (42844)
2026-09-06T
21:37:54+0000
1.042 km
极远距离
1.211945E-5 中风险 0.57
CDM_260905-182404-379405-266221
HAWK-B (43794)
2026-09-05T
18:24:26+0000
1.718 km
极远距离
4.079863E-6 低风险 0.47
CDM_260901-084905-266206-490321
CO3D1 (64903)
2026-09-01T
08:49:54+0000
2.885 km
极远距离
1.31666E-6 低风险 0.37